Track PLEIADES 1B now! 10-day predictions PLEIADES 1B is classified as:
1 39019U 12068A 25190.82618683 .00000201 00000-0 52967-4 0 9994 2 39019 98.1949 265.7884 0001482 94.8746 265.2623 14.58564764670949